Tracking 27086 objects as of 22-Mar-2023
HD Live streaming from Space Station
objects crossing your sky now

SPACEBEE-15

Track SPACEBEE-15 now!
10-day predictions


NORAD ID: 46302
Int'l Code: 2020-061AG
Perigee: 414.3 km
Apogee: 420.3 km
Inclination: 97.4 °
Period: 92.8 minutes
Semi major axis: 6788 km
RCS: Unknown
Launch date: September 3, 2020
Source: United States (US)
Launch site: FRENCH GUIANA (FRGUI)
Your satellite tracking list
Your tracking list is empty




NASA's NSSDC Master Catalog

Two Line Element Set (TLE):
1 46302U 20061AG  23081.19067681  .00229443  00000-0  36789-2 0  9995
2 46302  97.4090 158.3069 0004399 239.2278 120.8541 15.52246377140981
Source of the keplerian elements: AFSPC